Time,TemperatureF,DewpointF,PressureIn,WindDirection,WindDirectionDegrees,WindSpeedMPH,WindSpeedGustMPH,Humidity,HourlyPrecipIn,Conditions,Clouds,dailyrainin,SoftwareType,DateUTC
2013-04-13 00:02:00,42.0,35.0,30.02,NE,45,0.0,0.0,77,0.00,,,0.00,,2013-04-13 05:02:00,
2013-04-13 00:12:00,42.0,35.0,30.02,NE,45,0.0,0.0,77,0.00,,,0.00,,2013-04-13 05:12:00,
2013-04-13 00:22:00,41.0,35.0,30.02,NE,45,0.0,0.0,78,0.00,,,0.00,,2013-04-13 05:22:00,
2013-04-13 00:32:00,40.0,34.0,30.03,NE,45,0.0,0.0,79,0.00,,,0.00,,2013-04-13 05:32:00,
2013-04-13 00:43:00,40.0,34.0,30.03,NE,45,0.0,0.0,79,0.00,,,0.00,,2013-04-13 05:43:00,
2013-04-13 00:52:00,39.0,33.0,30.03,NE,45,0.0,0.0,80,0.00,,,0.00,,2013-04-13 05:52:00,
2013-04-13 01:02:00,38.0,32.0,30.03,NE,45,0.0,0.0,80,0.00,,,0.00,,2013-04-13 06:02:00,
2013-04-13 01:12:00,38.0,32.0,30.03,NE,45,0.0,0.0,80,0.00,,,0.00,,2013-04-13 06:12:00,
2013-04-13 01:23:00,37.0,32.0,30.03,NE,45,0.0,0.0,82,0.00,,,0.00,,2013-04-13 06:23:00,
2013-04-13 01:34:00,35.0,31.0,30.04,NE,45,0.0,0.0,84,0.00,,,0.00,,2013-04-13 06:34:00,
2013-04-13 01:46:00,35.0,31.0,30.04,NE,45,0.0,0.0,84,0.00,,,0.00,,2013-04-13 06:46:00,
2013-04-13 01:53:00,35.0,31.0,30.04,NE,45,0.0,0.0,86,0.00,,,0.00,,2013-04-13 06:53:00,
2013-04-13 02:05:00,34.0,31.0,30.04,NE,45,0.0,0.0,87,0.00,,,0.00,,2013-04-13 07:05:00,
2013-04-13 02:14:00,34.0,31.0,30.04,NE,45,0.0,0.0,87,0.00,,,0.00,,2013-04-13 07:14:00,
2013-04-13 02:23:00,34.0,31.0,30.03,NE,45,0.0,0.0,87,0.00,,,0.00,,2013-04-13 07:23:00,
2013-04-13 02:34:00,34.0,31.0,30.03,NE,45,0.0,0.0,88,0.00,,,0.00,,2013-04-13 07:34:00,
2013-04-13 02:44:00,34.0,31.0,30.03,NE,45,0.0,0.0,88,0.00,,,0.00,,2013-04-13 07:44:00,
2013-04-13 02:54:00,34.0,30.0,30.03,NE,45,0.0,0.0,86,0.00,,,0.00,,2013-04-13 07:54:00,
2013-04-13 03:06:00,33.0,30.0,30.03,NE,45,0.0,0.0,87,0.00,,,0.00,,2013-04-13 08:06:00,
2013-04-13 03:15:00,33.0,30.0,30.03,NE,45,0.0,0.0,87,0.00,,,0.00,,2013-04-13 08:15:00,
2013-04-13 03:25:00,33.0,30.0,30.02,NE,45,0.0,0.0,88,0.00,,,0.00,,2013-04-13 08:25:00,
2013-04-13 03:34:00,34.0,31.0,30.01,NE,45,0.0,0.0,88,0.00,,,0.00,,2013-04-13 08:34:00,
2013-04-13 03:45:00,34.0,31.0,30.01,NE,45,0.0,0.0,88,0.00,,,0.00,,2013-04-13 08:45:00,
2013-04-13 03:53:00,33.0,30.0,30.01,NE,45,0.0,0.0,88,0.00,,,0.00,,2013-04-13 08:53:00,
2013-04-13 04:05:00,33.0,30.0,30.02,NE,45,0.0,0.0,88,0.00,,,0.00,,2013-04-13 09:05:00,
2013-04-13 04:14:00,33.0,30.0,30.02,NE,45,0.0,0.0,88,0.00,,,0.00,,2013-04-13 09:14:00,
2013-04-13 04:24:00,32.0,29.0,30.02,NE,45,0.0,0.0,88,0.00,,,0.00,,2013-04-13 09:24:00,
2013-04-13 04:36:00,32.0,29.0,30.02,NE,45,0.0,0.0,88,0.00,,,0.00,,2013-04-13 09:36:00,
2013-04-13 04:53:00,32.0,29.0,30.03,NE,45,0.0,0.0,89,0.00,,,0.00,,2013-04-13 09:53:00,
2013-04-13 05:05:00,31.0,28.0,30.02,NE,45,0.0,0.0,89,0.00,,,0.00,,2013-04-13 10:05:00,
2013-04-13 05:24:00,32.0,29.0,30.01,NE,45,0.0,0.0,89,0.00,,,0.00,,2013-04-13 10:24:00,
2013-04-13 05:36:00,32.0,29.0,30.01,NE,45,0.0,0.0,90,0.00,,,0.00,,2013-04-13 10:36:00,
2013-04-13 05:45:00,32.0,29.0,30.01,NE,45,0.0,0.0,90,0.00,,,0.00,,2013-04-13 10:45:00,
2013-04-13 05:53:00,32.0,29.0,30.02,NE,45,0.0,0.0,90,0.00,,,0.00,,2013-04-13 10:53:00,
2013-04-13 06:05:00,32.0,29.0,30.01,NE,45,0.0,0.0,90,0.00,,,0.00,,2013-04-13 11:05:00,
2013-04-13 06:13:00,32.0,29.0,30.01,NE,45,0.0,0.0,90,0.00,,,0.00,,2013-04-13 11:13:00,
2013-04-13 06:23:00,32.0,29.0,30.01,NE,45,0.0,0.0,90,0.00,,,0.00,,2013-04-13 11:23:00,
2013-04-13 06:34:00,31.0,28.0,30.01,NE,45,0.0,0.0,90,0.00,,,0.00,,2013-04-13 11:34:00,
2013-04-13 06:53:00,31.0,28.0,30.00,NE,45,0.0,0.0,90,0.00,,,0.00,,2013-04-13 11:53:00,
2013-04-13 07:08:00,31.0,28.0,30.00,NE,45,0.0,0.0,90,0.00,,,0.00,,2013-04-13 12:08:00,
2013-04-13 07:15:00,31.0,28.0,30.00,NE,45,0.0,0.0,90,0.00,,,0.00,,2013-04-13 12:15:00,
2013-04-13 07:24:00,31.0,28.0,30.00,NE,44,0.0,0.0,90,0.00,,,0.00,,2013-04-13 12:24:00,
2013-04-13 07:35:00,31.0,28.0,30.00,NE,45,0.0,0.0,90,0.00,,,0.00,,2013-04-13 12:35:00,
2013-04-13 07:46:00,31.0,28.0,30.00,NE,45,0.0,0.0,90,0.00,,,0.00,,2013-04-13 12:46:00,
2013-04-13 07:54:00,31.0,29.0,29.99,NE,44,0.0,0.0,91,0.00,,,0.00,,2013-04-13 12:54:00,
2013-04-13 08:05:00,31.0,29.0,29.99,NE,44,0.0,0.0,91,0.00,,,0.00,,2013-04-13 13:05:00,
2013-04-13 08:15:00,31.0,29.0,29.99,NE,44,0.0,0.0,91,0.00,,,0.00,,2013-04-13 13:15:00,
2013-04-13 08:26:00,32.0,30.0,29.99,NE,44,0.0,0.0,91,0.00,,,0.00,,2013-04-13 13:26:00,
2013-04-13 08:34:00,35.0,33.0,29.99,NE,44,0.0,0.0,92,0.00,,,0.00,,2013-04-13 13:34:00,
2013-04-13 08:47:00,35.0,33.0,29.99,NE,44,0.0,0.0,92,0.00,,,0.00,,2013-04-13 13:47:00,
2013-04-13 08:53:00,39.0,37.0,29.99,South,180,3.0,4.0,92,0.00,,,0.00,,2013-04-13 13:53:00,
2013-04-13 09:04:00,44.0,39.0,29.98,South,179,0.0,3.0,81,0.00,,,0.00,,2013-04-13 14:04:00,
2013-04-13 09:14:00,44.0,39.0,29.98,South,179,0.0,3.0,81,0.00,,,0.00,,2013-04-13 14:14:00,
2013-04-13 09:23:00,46.0,38.0,29.98,SSE,161,5.0,7.0,74,0.00,,,0.00,,2013-04-13 14:23:00,
2013-04-13 09:45:00,48.0,39.0,29.98,SE,146,5.0,7.0,70,0.00,,,0.00,,2013-04-13 14:45:00,
2013-04-13 09:54:00,50.0,39.0,29.97,SSE,157,6.0,11.0,65,0.00,,,0.00,,2013-04-13 14:54:00,
2013-04-13 10:04:00,51.0,38.0,29.96,SSE,155,9.0,14.0,61,0.00,,,0.00,,2013-04-13 15:04:00,
2013-04-13 10:14:00,51.0,38.0,29.96,SSE,155,9.0,14.0,61,0.00,,,0.00,,2013-04-13 15:14:00,
2013-04-13 10:28:00,52.0,38.0,29.95,SE,140,10.0,13.0,59,0.00,,,0.00,,2013-04-13 15:28:00,
2013-04-13 10:35:00,53.0,39.0,29.94,SE,134,8.0,13.0,60,0.00,,,0.00,,2013-04-13 15:35:00,
2013-04-13 10:54:00,53.0,39.0,29.94,SE,134,10.0,14.0,60,0.00,,,0.00,,2013-04-13 15:54:00,
2013-04-13 11:05:00,53.0,39.0,29.93,SSE,156,9.0,14.0,59,0.00,,,0.00,,2013-04-13 16:05:00,
2013-04-13 11:15:00,53.0,39.0,29.93,SSE,156,9.0,14.0,59,0.00,,,0.00,,2013-04-13 16:15:00,
2013-04-13 11:24:00,55.0,42.0,29.92,South,186,10.0,17.0,61,0.00,,,0.00,,2013-04-13 16:24:00,
2013-04-13 11:35:00,55.0,40.0,29.92,SSE,157,8.0,16.0,56,0.00,,,0.00,,2013-04-13 16:35:00,
2013-04-13 11:45:00,55.0,40.0,29.92,SSE,157,8.0,16.0,56,0.00,,,0.00,,2013-04-13 16:45:00,
2013-04-13 11:53:00,56.0,40.0,29.91,SSE,148,10.0,17.0,55,0.00,,,0.00,,2013-04-13 16:53:00,
2013-04-13 12:06:00,57.0,41.0,29.90,SSE,150,11.0,16.0,56,0.00,,,0.00,,2013-04-13 17:06:00,
2013-04-13 12:20:00,57.0,41.0,29.90,SSE,150,11.0,16.0,56,0.00,,,0.00,,2013-04-13 17:20:00,
2013-04-13 12:37:00,59.0,41.0,29.88,South,173,11.0,16.0,52,0.00,,,0.00,,2013-04-13 17:37:00,
2013-04-13 12:44:00,59.0,41.0,29.88,South,173,11.0,16.0,52,0.00,,,0.00,,2013-04-13 17:44:00,
2013-04-13 12:57:00,59.0,44.0,29.87,SSE,153,12.0,19.0,57,0.00,,,0.00,,2013-04-13 17:57:00,
2013-04-13 13:05:00,59.0,44.0,29.85,SSE,160,11.0,17.0,58,0.00,,,0.00,,2013-04-13 18:05:00,
2013-04-13 13:15:00,59.0,44.0,29.85,SSE,160,11.0,17.0,58,0.00,,,0.00,,2013-04-13 18:15:00,
2013-04-13 13:24:00,60.0,44.0,29.84,South,177,14.0,18.0,56,0.00,,,0.00,,2013-04-13 18:24:00,
2013-04-13 13:33:00,61.0,45.0,29.83,SSE,155,14.0,17.0,56,0.00,,,0.00,,2013-04-13 18:33:00,
2013-04-13 13:42:00,61.0,45.0,29.83,SSE,155,14.0,17.0,56,0.00,,,0.00,,2013-04-13 18:42:00,
2013-04-13 13:52:00,62.0,47.0,29.80,SE,140,15.0,19.0,57,0.00,,,0.00,,2013-04-13 18:52:00,
2013-04-13 14:03:00,62.0,45.0,29.79,SSE,161,12.0,22.0,54,0.00,,,0.00,,2013-04-13 19:03:00,
2013-04-13 14:12:00,62.0,45.0,29.79,SSE,161,12.0,22.0,54,0.00,,,0.00,,2013-04-13 19:12:00,
2013-04-13 14:22:00,63.0,47.0,29.78,SSE,159,8.0,20.0,55,0.00,,,0.00,,2013-04-13 19:22:00,
2013-04-13 14:32:00,64.0,48.0,29.77,SSE,149,16.0,27.0,56,0.00,,,0.00,,2013-04-13 19:32:00,
2013-04-13 14:42:00,64.0,48.0,29.77,SSE,149,16.0,27.0,56,0.00,,,0.00,,2013-04-13 19:42:00,
2013-04-13 14:52:00,65.0,50.0,29.75,SSE,168,16.0,23.0,59,0.00,,,0.00,,2013-04-13 19:52:00,
2013-04-13 15:02:00,65.0,49.0,29.73,SSE,160,15.0,24.0,57,0.00,,,0.00,,2013-04-13 20:02:00,
2013-04-13 15:12:00,65.0,49.0,29.73,SSE,160,15.0,24.0,57,0.00,,,0.00,,2013-04-13 20:12:00,
2013-04-13 15:22:00,66.0,49.0,29.72,SE,145,14.0,28.0,55,0.00,,,0.00,,2013-04-13 20:22:00,
2013-04-13 15:32:00,66.0,50.0,29.71,South,178,11.0,27.0,56,0.00,,,0.00,,2013-04-13 20:32:00,
2013-04-13 15:42:00,66.0,50.0,29.71,South,178,11.0,27.0,56,0.00,,,0.00,,2013-04-13 20:42:00,
2013-04-13 15:52:00,66.0,49.0,29.70,South,182,16.0,26.0,54,0.00,,,0.00,,2013-04-13 20:52:00,
2013-04-13 16:02:00,66.0,50.0,29.69,South,188,9.0,25.0,57,0.00,,,0.00,,2013-04-13 21:02:00,
2013-04-13 16:12:00,66.0,50.0,29.69,South,188,9.0,25.0,57,0.00,,,0.00,,2013-04-13 21:12:00,
2013-04-13 16:22:00,66.0,51.0,29.67,SSE,168,14.0,23.0,59,0.00,,,0.00,,2013-04-13 21:22:00,
2013-04-13 16:32:00,67.0,52.0,29.66,SSE,163,13.0,22.0,58,0.00,,,0.00,,2013-04-13 21:32:00,
2013-04-13 16:43:00,67.0,52.0,29.66,SSE,163,13.0,22.0,58,0.00,,,0.00,,2013-04-13 21:43:00,
2013-04-13 16:52:00,66.0,51.0,29.65,South,171,15.0,23.0,59,0.00,,,0.00,,2013-04-13 21:52:00,
2013-04-13 17:03:00,66.0,52.0,29.64,South,178,6.0,22.0,60,0.00,,,0.00,,2013-04-13 22:03:00,
2013-04-13 17:12:00,66.0,52.0,29.64,South,178,6.0,22.0,60,0.00,,,0.00,,2013-04-13 22:12:00,
2013-04-13 17:22:00,66.0,51.0,29.63,South,187,14.0,29.0,59,0.00,,,0.00,,2013-04-13 22:22:00,
2013-04-13 17:33:00,66.0,52.0,29.62,South,176,13.0,24.0,60,0.00,,,0.00,,2013-04-13 22:33:00,
2013-04-13 17:42:00,66.0,52.0,29.62,South,176,13.0,24.0,60,0.00,,,0.00,,2013-04-13 22:42:00,
2013-04-13 17:52:00,67.0,53.0,29.60,South,175,15.0,22.0,60,0.00,,,0.00,,2013-04-13 22:52:00,
2013-04-13 18:02:00,67.0,53.0,29.59,South,191,12.0,21.0,60,0.00,,,0.00,,2013-04-13 23:02:00,
2013-04-13 18:12:00,67.0,53.0,29.59,South,191,12.0,21.0,60,0.00,,,0.00,,2013-04-13 23:12:00,
2013-04-13 18:22:00,67.0,52.0,29.58,South,175,8.0,18.0,58,0.00,,,0.00,,2013-04-13 23:22:00,
2013-04-13 18:32:00,67.0,53.0,29.57,South,182,6.0,16.0,60,0.00,,,0.00,,2013-04-13 23:32:00,
2013-04-13 18:42:00,67.0,53.0,29.57,South,182,6.0,16.0,60,0.00,,,0.00,,2013-04-13 23:42:00,
2013-04-13 18:52:00,67.0,53.0,29.57,South,173,6.0,21.0,60,0.00,,,0.00,,2013-04-13 23:52:00,
2013-04-13 19:02:00,67.0,53.0,29.57,South,182,6.0,19.0,60,0.00,,,0.00,,2013-04-14 00:02:00,
2013-04-13 19:12:00,67.0,53.0,29.57,South,182,6.0,19.0,60,0.00,,,0.00,,2013-04-14 00:12:00,
2013-04-13 19:22:00,67.0,53.0,29.57,SSE,164,8.0,15.0,61,0.00,,,0.00,,2013-04-14 00:22:00,
2013-04-13 19:32:00,67.0,53.0,29.59,SSW,194,6.0,13.0,61,0.00,,,0.00,,2013-04-14 00:32:00,
2013-04-13 19:42:00,67.0,53.0,29.59,SSW,194,6.0,13.0,61,0.00,,,0.00,,2013-04-14 00:42:00,
2013-04-13 19:52:00,66.0,53.0,29.59,SSE,159,8.0,12.0,63,0.00,,,0.00,,2013-04-14 00:52:00,
2013-04-13 20:02:00,66.0,53.0,29.58,South,175,5.0,13.0,63,0.00,,,0.00,,2013-04-14 01:02:00,
2013-04-13 20:12:00,66.0,53.0,29.58,South,175,5.0,13.0,63,0.00,,,0.00,,2013-04-14 01:12:00,
2013-04-13 20:22:00,64.0,52.0,29.58,South,173,6.0,10.0,65,0.00,,,0.00,,2013-04-14 01:22:00,
2013-04-13 20:32:00,64.0,52.0,29.58,SSE,152,6.0,10.0,66,0.00,,,0.00,,2013-04-14 01:32:00,
2013-04-13 20:42:00,64.0,52.0,29.58,SSE,152,6.0,10.0,66,0.00,,,0.00,,2013-04-14 01:42:00,
2013-04-13 20:52:00,63.0,52.0,29.57,SSE,160,6.0,11.0,67,0.00,,,0.00,,2013-04-14 01:52:00,
2013-04-13 21:02:00,63.0,50.0,29.57,South,172,6.0,12.0,63,0.00,,,0.00,,2013-04-14 02:02:00,
2013-04-13 21:12:00,63.0,50.0,29.57,South,172,6.0,12.0,63,0.00,,,0.00,,2013-04-14 02:12:00,
2013-04-13 21:22:00,64.0,49.0,29.57,South,178,10.0,15.0,59,0.00,,,0.00,,2013-04-14 02:22:00,
2013-04-13 21:32:00,64.0,49.0,29.56,South,169,13.0,24.0,59,0.00,,,0.00,,2013-04-14 02:32:00,
2013-04-13 21:42:00,64.0,49.0,29.56,South,169,13.0,24.0,59,0.00,,,0.00,,2013-04-14 02:42:00,
2013-04-13 21:52:00,64.0,49.0,29.56,SSE,167,15.0,23.0,58,0.00,,,0.00,,2013-04-14 02:52:00,
2013-04-13 22:02:00,64.0,48.0,29.55,SSW,192,13.0,21.0,57,0.00,,,0.00,,2013-04-14 03:02:00,
2013-04-13 22:12:00,64.0,48.0,29.55,SSW,192,13.0,21.0,57,0.00,,,0.00,,2013-04-14 03:12:00,
2013-04-13 22:22:00,64.0,49.0,29.55,South,178,15.0,24.0,58,0.00,,,0.00,,2013-04-14 03:22:00,
2013-04-13 22:33:00,63.0,48.0,29.55,South,170,17.0,24.0,59,0.00,,,0.00,,2013-04-14 03:33:00,
2013-04-13 22:42:00,63.0,48.0,29.55,South,170,17.0,24.0,59,0.00,,,0.00,,2013-04-14 03:42:00,
2013-04-13 22:53:00,63.0,48.0,29.54,SSW,198,17.0,27.0,59,0.00,,,0.00,,2013-04-14 03:53:00,
2013-04-13 23:02:00,63.0,49.0,29.54,South,169,16.0,23.0,60,0.00,,,0.00,,2013-04-14 04:02:00,
2013-04-13 23:12:00,63.0,49.0,29.54,South,169,16.0,23.0,60,0.00,,,0.00,,2013-04-14 04:12:00,
2013-04-13 23:23:00,63.0,49.0,29.54,SSW,198,18.0,27.0,60,0.00,,,0.00,,2013-04-14 04:23:00,
2013-04-13 23:32:00,63.0,49.0,29.53,SSW,198,17.0,30.0,60,0.00,,,0.00,,2013-04-14 04:32:00,
2013-04-13 23:43:00,63.0,49.0,29.53,SSW,198,17.0,30.0,60,0.00,,,0.00,,2013-04-14 04:43:00,
2013-04-13 23:52:00,62.0,48.0,29.52,SSE,165,19.0,28.0,60,0.00,,,0.00,,2013-04-14 04:52:00,